Location: Bidwell Hollow
(37.7387°N, 90.1707°W)
Time: 01:36:05
(UTC+00:00)

Tiros 1 despin weight - Pass Details

Date: 19 May 2026
Orbit: 554 x 591 km, 48.2° (Epoch: 6 June)

Event Time Altitude Azimuth Distance (km) Brightness Sun altitude
Rises 15:32:34 0° 302° (WNW) 2,734 ? 53.9°
Reaches altitude 10° 15:34:49 10° 299° (WNW) 1,834 ? 54.4°
Maximum altitude 15:38:59 68° 217° (SW) 597 ? 55.1°
Drops below altitude 10° 15:43:07 10° 135° (SE) 1,824 ? 55.9°
Sets 15:45:22 0° 132° (SE) 2,717 ? 56.3°
